Date String (YYYY-MM-DD hh:mm:ss) UTC,Instrument flags,Ambient pressure (hPa),Sample flow (lpm),Bypass flow (lpm),Sample temperature (°C),Ambient temperature (°C),ASC tube jacket temperature (°C),LED temperature (°C),Box temperature (°C),Sample RH (%),Span deviation,Mass concentration (μg/m³),Mass concentration (μg/m³),Mass concentration (μg/m³)
DateTimeUTC,F1_M11,P_M11,Q1_M11,Q2_M11,T1_M11,T2_M11,T3_M11,T4_M11,T5_M11,U1_M11,ZSPAN_M11,X2_M11,X0_M11,X1_M11
2021-09-27 14:00:00,,0826.7,4.99,0.00,30.1,26.8,00.0,39.5,31.5,10.5,0003.0,0005.88,0014.43,0004.93
2021-09-27 14:01:00,,0826.6,5.01,0.00,30.1,27.2,00.0,39.4,31.5,10.7,0002.7,0005.86,0014.56,0004.94
2021-09-27 14:02:00,,0826.7,4.99,0.00,30.0,27.6,00.0,39.3,31.5,10.8,0002.7,0005.90,0014.90,0004.94
2021-09-27 14:03:00,,0826.7,5.00,0.00,30.0,27.9,00.0,39.3,31.5,10.7,0002.2,0005.92,0014.68,0004.94
2021-09-27 14:04:00,,0826.7,5.01,0.00,30.0,28.2,00.0,39.3,31.6,10.8,0002.0,0005.93,0014.38,0004.94
2021-09-27 14:05:00,,0826.7,4.99,0.00,30.0,28.4,00.0,39.3,31.6,11.1,0001.5,0005.95,0014.42,0004.94
2021-09-27 14:06:00,,0826.6,5.01,0.00,30.1,28.5,00.0,39.3,31.7,11.4,0001.2,0005.99,0014.67,0004.94
2021-09-27 14:07:00,,0826.7,5.00,0.00,30.1,28.7,00.0,39.2,31.7,11.5,0000.7,0006.01,0013.84,0004.96
2021-09-27 14:08:00,,0826.7,5.00,0.00,30.1,28.8,00.0,39.2,31.8,11.5,0000.3,0006.04,0014.25,0004.97
2021-09-27 14:09:00,,0826.6,5.01,0.00,30.1,28.8,00.0,39.2,31.8,11.4,0000.1,0006.07,0014.69,0004.97
2021-09-27 14:10:00,,0826.7,5.00,0.00,30.1,28.9,00.0,39.2,31.8,11.4,0000.5,0006.11,0014.99,0004.98
2021-09-27 14:11:00,,0826.7,5.01,0.00,30.1,29.0,00.0,39.3,31.8,11.3,0000.8,0006.10,0014.66,0004.99
2021-09-27 14:12:00,,0826.7,5.00,0.00,30.2,29.0,00.0,39.3,31.9,11.1,0001.3,0006.16,0014.65,0005.00
2021-09-27 14:13:00,,0826.6,4.99,0.00,30.2,29.1,00.0,39.3,31.9,11.0,0001.5,0006.16,0014.34,0005.01
2021-09-27 14:14:00,,0826.7,5.01,0.00,30.2,29.1,00.0,39.3,32.0,11.1,0002.4,0006.19,0014.81,0005.02
2021-09-27 14:15:00,,0826.7,4.98,0.00,30.2,29.2,00.0,39.3,32.0,11.1,0002.2,0006.20,0015.04,0005.04
2021-09-27 14:16:00,,0826.7,5.01,0.00,30.3,29.2,00.0,39.3,32.0,11.1,0002.1,0006.26,0015.16,0005.05
2021-09-27 14:17:00,,0826.7,5.01,0.00,30.3,29.2,00.0,39.3,32.0,11.3,0002.3,0006.29,0014.50,0005.06
2021-09-27 14:18:00,,0826.7,4.99,0.00,30.3,29.3,00.0,39.3,32.0,11.3,0002.7,0006.29,0014.14,0005.05
2021-09-27 14:19:00,,0826.7,5.01,0.00,30.3,29.3,00.0,39.3,32.1,11.3,0002.9,0006.31,0013.38,0005.06
2021-09-27 14:20:00,,0826.6,4.99,0.00,30.3,29.4,00.0,39.3,32.1,11.5,0003.2,0006.33,0013.44,0005.08
2021-09-27 14:21:00,,0826.7,5.01,0.00,30.4,29.4,00.0,39.4,32.1,11.6,0003.2,0006.35,0013.48,0005.07
2021-09-27 14:22:00,,0826.6,4.99,0.00,30.4,29.4,00.0,39.4,32.1,11.4,0002.9,0006.47,0013.69,0005.08
2021-09-27 14:23:00,,0826.7,5.01,0.00,30.4,29.4,00.0,39.4,32.1,11.3,0002.7,0006.55,0014.22,0005.10
2021-09-27 14:24:00,,0826.7,5.01,0.00,30.4,29.5,00.0,39.4,32.1,11.4,0002.4,0006.59,0014.58,0005.10
2021-09-27 14:25:00,,0826.6,4.99,0.00,30.4,29.0,00.0,39.4,32.0,11.3,0002.0,0006.63,0014.47,0005.09
2021-09-27 14:26:00,,0826.7,5.00,0.00,30.3,27.2,00.0,39.4,31.6,11.2,0002.1,0006.69,0014.56,0005.11
2021-09-27 14:27:00,,0826.7,5.00,0.00,30.2,26.6,00.0,39.4,31.4,11.4,0002.4,0006.70,0014.13,0005.10
2021-09-27 14:28:00,,0826.7,5.00,0.00,30.1,27.0,00.0,39.4,31.5,11.3,0002.8,0006.69,0014.02,0005.10
2021-09-27 14:29:00,,0826.7,5.00,0.00,30.0,27.4,00.0,39.3,31.5,11.2,0002.4,0006.69,0014.54,0005.10
2021-09-27 14:30:00,,0826.7,5.00,0.00,30.0,27.8,00.0,39.3,31.5,11.2,0002.3,0006.62,0014.92,0005.08
2021-09-27 14:31:00,,0826.7,5.01,0.00,30.0,28.1,00.0,39.2,31.6,11.5,0002.3,0006.60,0014.50,0005.07
2021-09-27 14:32:00,,0826.7,5.00,0.00,30.0,28.3,00.0,39.2,31.7,11.2,0002.2,0006.52,0014.37,0005.06
2021-09-27 14:33:00,,0826.7,4.99,0.00,30.1,28.5,00.0,39.2,31.7,11.3,0002.3,0006.38,0014.06,0005.06
2021-09-27 14:34:00,,0826.6,5.01,0.00,30.1,28.6,00.0,39.2,31.8,11.5,0001.7,0006.21,0013.38,0005.03
2021-09-27 14:35:00,,0826.7,4.99,0.00,30.1,28.8,00.0,39.2,31.8,11.5,0001.2,0006.14,0013.11,0005.02
2021-09-27 14:36:00,,0826.7,5.01,0.00,30.1,28.9,00.0,39.2,31.9,11.6,0001.3,0006.08,0012.67,0005.03
2021-09-27 14:37:00,,0826.7,5.00,0.00,30.1,29.0,00.0,39.2,31.9,11.4,0001.2,0006.00,0012.37,0005.01
2021-09-27 14:38:00,,0826.7,4.99,0.00,30.2,29.1,00.0,39.2,31.9,11.5,0001.1,0005.85,0011.93,0005.00
2021-09-27 14:39:00,,0826.7,5.01,0.00,30.2,29.2,00.0,39.2,32.0,12.9,0000.7,0005.86,0011.94,0005.00
2021-09-27 14:40:00,,0826.7,4.99,0.00,30.2,29.2,00.0,39.2,32.0,13.6,0000.5,0005.94,0012.52,0005.00
2021-09-27 14:41:00,,0826.7,5.00,0.00,30.3,29.3,00.0,39.3,32.0,13.0,0000.5,0006.02,0012.77,0005.01
2021-09-27 14:42:00,,0826.8,4.99,0.00,30.3,29.4,00.0,39.3,32.1,12.7,0000.0,0006.03,0013.47,0005.02
2021-09-27 14:43:00,,0826.7,5.00,0.00,30.3,29.4,00.0,39.3,32.1,12.7,0000.1,0006.11,0014.21,0005.05
2021-09-27 14:44:00,,0826.9,5.01,0.00,30.3,29.2,00.0,39.3,32.1,12.1,0000.3,0006.15,0014.12,0005.07
2021-09-27 14:45:00,,0826.7,4.99,0.00,30.3,27.5,00.0,39.3,31.7,12.0,0000.5,0006.26,0014.36,0005.08
2021-09-27 14:46:00,,0826.7,5.00,0.00,30.1,26.6,00.0,39.3,31.4,12.2,0001.0,0006.30,0014.80,0005.11
2021-09-27 14:47:00,,0826.7,5.01,0.00,30.0,27.0,00.0,39.3,31.5,12.3,0000.9,0006.28,0015.04,0005.11
2021-09-27 14:48:00,,0826.7,5.01,0.00,30.0,27.4,00.0,39.2,31.5,12.8,0001.0,0006.37,0015.54,0005.13
2021-09-27 14:49:00,,0826.7,5.00,0.00,30.0,27.8,00.0,39.2,31.5,13.8,0001.4,0006.59,0016.67,0005.14
2021-09-27 14:50:00,,0826.8,4.98,0.00,30.0,28.1,00.0,39.1,31.6,14.0,0001.4,0006.66,0017.31,0005.15
2021-09-27 14:51:00,,0826.8,5.01,0.00,30.0,28.3,00.0,39.1,31.7,13.6,0001.4,0006.69,0017.08,0005.17
2021-09-27 14:52:00,,0826.8,5.01,0.00,30.0,28.5,00.0,39.1,31.7,13.9,0001.3,0006.79,0018.15,0005.17
2021-09-27 14:53:00,,0826.8,4.99,0.00,30.0,28.7,00.0,39.1,31.8,13.6,0001.6,0006.95,0019.92,0005.19
2021-09-27 14:54:00,,0826.8,5.00,0.00,30.1,28.9,00.0,39.1,31.9,13.2,0001.5,0006.93,0020.67,0005.18
2021-09-27 14:55:00,,0826.8,5.01,0.00,30.1,29.0,00.0,39.1,31.9,12.8,0001.4,0006.95,0021.54,0005.17
2021-09-27 14:56:00,,0826.8,5.00,0.00,30.1,29.1,00.0,39.2,31.9,12.4,0001.5,0006.94,0022.03,0005.17
2021-09-27 14:57:00,,0826.8,5.01,0.00,30.2,29.2,00.0,39.2,32.0,12.8,0001.4,0006.91,0022.09,0005.15
2021-09-27 14:58:00,,0826.8,5.00,0.00,30.2,29.2,00.0,39.2,32.0,13.1,0001.6,0006.95,0022.17,0005.15
2021-09-27 14:59:00,,0826.9,5.00,0.00,30.2,29.3,00.0,39.2,32.0,15.0,0001.9,0007.08,0022.68,0005.16
